CAPE
455 14 145 49 38 19 3 35 229 290 256 196 102 55 136 238 342 79 364 375 718 985 1418 2031 2585 2029 1473 1338 1374 1504 1532 1527 1503 1471 1518 1591 1734 1866 1774 1722 1703 1701 1705 1871 2182 2015 1944 1748 2067
590 250 19 40 1 27 88 202 269 294 236 168 191 268 202 328 701 508 335 617 647 878 1417 1742 2509 2776 1947 1644 1415 1309 1443 1371 1426 1390 1369 1332 1443 1676 1695 1581 1448 1630 1717 1741 2078 1771 1824 1923 1951
121 126 26 69 82 75 110 462 424 200 169 266 194 213 217 551 546 426 495 669 742 1137 1560 1838 2618 2750 2230 2155 1696 1290 1305 1445 1433 1429 1428 1394 1471 1554 1592 1360 1245 1645 1834 1853 1977 1750 1677 1290 1511
6 16 48 71 185 220 299 436 375 269 80 201 212 251 255 540 501 499 592 902 1108 1418 1655 2233 2409 2168 2223 2091 1928 1776 2032 1400 1268 1371 1308 1339 1389 1679 1453 1280 1343 1515 1762 1967 1682 1634 1494 1274 1375
38 32 35 67 200 272 231 565 620 311 43 97 215 328 322 511 532 577 805 973 1107 1404 1485 1819 2666 2649 2630 2098 1955 1885 1762 1773 1621 1398 1509 1502 1341 1462 1395 1284 1596 1635 1861 1822 1579 1541 1432 1288 1256
249 6 30 62 38 240 126 11 340 303 227 289 330 314 280 543 682 703 753 868 1128 1304 1601 1599 2033 2164 2045 1819 1765 1632 1498 1592 1631 1517 1450 1404 1343 1342 1344 1420 1648 1703 1925 1761 1636 1378 1211 1107 1063
52 20 29 50 211 198 244 100 147 184 315 297 218 254 320 597 632 589 658 836 1026 1317 1358 1537 1502 1571 2033 2272 2043 1918 1428 1912 1802 1772 1735 1756 1756 1888 1743 1802 1892 1779 1722 1911 1399 1277 1110 1014 1135
57 76 62 217 89 4 237 103 162 265 303 128 151 186 393 513 498 448 778 914 1036 1185 1328 1392 1410 1504 1741 1572 1966 1804 1818 1743 1843 1983 1599 1860 1858 1780 1838 2128 2049 1856 1869 1725 1490 1137 1226 1258 1170
197 127 76 208 40 48 224 147 94 148 258 180 163 352 263 445 253 475 626 658 754 898 1187 1257 1214 1306 1565 1434 1722 1741 1782 1751 1866 1592 1738 1664 1513 1517 1803 1925 2103 1985 1808 1360 1074 1514 661 498 551
38 27 59 247 63 28 6 200 41 228 233 138 286 375 359 444 286 325 360 388 461 483 784 819 1048 1234 1255 1296 1355 1341 1271 1449 1567 1324 1403 1420 1282 1321 1388 1660 1800 1808 1439 1377 1808 884 516 235 138
15 12 15 133 138 104 58 131 80 8 65 196 500 311 347 368 305 213 254 225 154 192 392 537 818 1055 1112 1099 1300 1166 1175 1241 1253 1269 1258 1261 826 957 1340 1295 1502 1558 1238 866 794 372 309 57 48
39 15 5 0 411 143 96 74 42 192 109 297 456 314 315 359 341 261 273 267 74 44 189 405 660 772 929 1160 1070 878 914 970 908 1120 1067 1023 930 874 971 982 959 791 337 394 322 427 404 44 42
0 0 0 0 229 190 120 182 111 183 280 580 458 399 336 361 342 303 351 362 84 28 31 170 350 290 654 1166 824 680 640 602 554 623 604 617 639 714 745 918 876 686 326 304 277 329 242 41 72
0 0 0 0 119 367 218 443 133 298 390 716 618 483 398 395 363 356 394 413 232 120 66 148 261 214 652 1018 444 430 408 293 282 442 514 497 591 631 295 251 790 765 277 312 177 63 125 26 24
0 0 0 0 0 279 266 136 145 378 420 749 729 594 473 424 413 403 394 416 268 183 232 392 565 377 743 1121 457 557 483 456 498 555 587 670 396 65 58 28 122 129 113 83 146 163 152 122 121
0 0 0 0 0 11 11 0 0 301 489 762 870 816 625 508 464 453 430 397 422 323 368 570 811 700 788 1207 922 764 928 808 730 478 531 508 342 18 54 173 570 744 353 296 276 202 240 214 188
0 0 0 0 6 0 0 0 0 277 687 653 829 896 863 675 592 553 508 484 472 476 466 919 932 607 840 1027 1031 846 1056 795 471 383 441 424 219 0 62 348 636 652 549 412 414 329 407 390 291
0 0 0 0 0 0 0 0 88 228 824 779 802 903 870 824 673 684 605 580 551 574 493 841 940 737 671 984 888 773 706 644 384 382 392 398 384 10 229 377 562 524 475 521 453 557 568 633 389
0 0 0 0 0 0 0 0 25 116 743 825 704 667 527 793 676 683 714 810 642 656 578 694 942 1031 810 632 726 490 570 463 449 365 310 162 141 5 166 408 333 603 540 255 602 798 597 429 223
0 0 0 0 0 0 0 0 0 57 545 800 747 555 307 610 546 677 701 831 819 745 719 689 803 1018 760 571 478 538 558 563 494 352 276 418 243 56 181 807 364 472 389 465 471 643 791 398 453
0 0 0 0 0 0 0 0 0 0 137 441 684 600 573 689 562 723 792 761 760 893 932 779 759 975 807 628 599 516 493 628 449 436 385 394 308 167 22 456 456 340 587 244 329 992 476 503 508
0 0 0 0 0 0 0 0 0 0 0 0 161 641 547 713 631 733 837 887 799 879 901 840 901 897 929 772 892 522 486 568 614 473 477 628 381 104 387 321 516 374 492 604 734 753 540 328 386
0 0 0 0 0 0 0 0 0 0 0 0 0 246 487 533 701 767 902 923 898 922 891 857 882 787 921 944 949 703 412 437 531 574 430 511 635 462 287 736 851 732 454 511 769 558 372 533 330
0 0 0 0 0 0 0 0 1 1 0 0 0 150 414 612 746 860 935 966 948 964 943 848 792 874 844 845 817 761 435 319 363 467 414 407 458 435 347 323 460 562 1069 486 298 153 158 136 431
0 0 0 0 0 0 0 0 0 0 0 112 2 13 400 700 761 906 970 1006 988 1001 944 877 761 789 679 626 644 695 516 360 280 319 411 378 381 434 471 428 379 352 419 971 806 507 269 31 6
0 0 0 0 0 0 0 0 0 0 0 64 311 180 1 624 852 841 979 1035 1039 1033 945 923 779 668 672 681 656 701 565 461 354 319 341 397 332 324 449 549 525 472 565 730 989 748 551 321 493
0 0 0 0 0 0 0 3 4 91 31 1 34 332 360 79 462 879 933 1042 1079 1057 979 922 872 738 699 704 786 690 661 566 625 525 541 480 405 432 397 492 629 582 535 699 787 656 666 479 537
0 0 0 0 0 0 3 8 228 83 13 30 0 107 539 788 545 861 828 888 1046 1116 1014 856 849 867 815 789 839 786 720 682 781 791 658 590 627 703 764 558 454 537 543 541 580 568 514 578 554
0 0 0 0 0 0 0 81 19 6 0 0 30 14 379 1045 1211 1189 988 875 874 1087 917 818 866 989 981 939 938 920 837 851 807 877 800 736 674 798 814 735 692 616 594 557 553 604 562 771 725
0 0 0 0 0 0 0 3 2 2 0 0 0 0 31 570 1232 1493 1371 1163 1025 1057 1087 1020 986 1087 1045 1164 1120 1115 1124 1087 1032 994 998 897 830 886 734 743 668 688 713 564 460 540 578 692 810
CIN
-181 -134 -329 -430 -137 -44 -9 -88 -39 -48 -69 -99 -55 -76 -75 -116 -88 -50 -165 -158 -98 -45 -2 -2 0 0 -6 -3 -4 0 0 0 0 -3 -2 -2 -3 -11 -19 -15 -10 -14 -14 -3 0 0 0 -3 0
-179 -282 -522 -172 0 -54 -57 -55 -120 -82 -123 -70 -75 -86 -86 -121 -156 -173 -161 -102 -92 -60 -1 -1 -1 0 0 -1 -7 -2 0 0 0 -6 -3 -12 -14 -13 -17 -23 -21 -12 -9 -7 0 -2 0 -4 -2
-230 -398 -236 -236 -85 -24 -58 -45 -101 -86 -75 -80 -66 -80 -109 -143 -161 -174 -146 -93 -55 -20 -1 -1 0 0 0 0 0 -6 -2 0 0 -4 0 -9 -12 -20 -20 -31 -28 -3 0 0 0 0 -3 -13 -5
-43 -83 -131 -154 -85 -44 -19 -35 -82 -110 -136 -70 -78 -95 -112 -117 -159 -151 -138 -57 -16 -6 -1 0 0 0 0 0 0 0 0 0 -4 -3 -4 -4 -10 -7 -19 -23 -9 -1 0 0 0 0 -2 -5 -6
-112 -24 -35 -6 -93 -92 -109 -79 -88 -86 -32 -124 -82 -120 -140 -108 -136 -100 -80 -48 -25 -4 -1 0 0 0 0 0 0 0 0 0 0 -1 0 0 -2 -4 -19 -21 -1 0 0 0 0 -1 -5 -11 -9
-110 -110 -6 -3 -74 -93 -143 -213 -93 -166 -140 -143 -115 -96 -91 -132 -134 -89 -61 -37 -28 -30 -2 0 0 0 0 0 0 0 0 0 0 0 0 0 0 -4 -12 -11 0 0 0 -1 0 -3 -3 -7 -11
-270 -101 -10 -94 -107 -159 -127 -46 -109 -146 -143 -122 -93 -90 -143 -106 -97 -86 -46 -34 -28 -25 -20 0 -1 0 0 0 0 0 0 0 0 0 0 0 0 0 0 -1 0 0 0 0 -3 -6 -7 -6 -5
-328 -210 -170 -168 -146 -36 -202 -85 -143 -155 -140 -200 -140 -146 -121 -99 -87 -69 -13 -10 -7 -16 -20 -8 -2 -1 -1 -1 0 0 0 0 0 0 0 0 0 0 0 0 0 0 0 -3 0 -8 -2 -7 -13
-251 -120 -115 -141 -47 -14 -201 -158 -151 -158 -200 -205 -209 -150 -176 -101 -73 -69 -27 -24 -23 -28 -21 -17 -15 -3 0 -2 -1 -1 0 0 0 0 0 0 -1 -6 -1 -6 -1 0 0 -5 -3 -5 -29 -69 -85
-139 -91 -211 -162 -73 -29 -37 -216 -254 -182 -162 -253 -189 -120 -153 -84 -46 -100 -90 -84 -63 -62 -45 -45 -28 -14 -14 -11 -1 -2 -1 -1 0 -3 -1 -1 -14 -26 -24 -15 -7 -4 -8 -5 -5 -55 -78 -137 -173
-226 -78 -36 -111 -132 -45 -47 -212 -193 -276 -269 -298 -140 -121 -141 -88 -44 -79 -94 -58 -55 -162 -70 -68 -44 -29 -28 -27 -2 -6 -6 -4 -11 -14 -11 -15 -49 -46 -27 -37 -23 -29 -38 -92 -88 -140 -137 -194 -228
-94 -143 -43 -7 -137 -51 -81 -92 -304 -314 -215 -274 -143 -103 -102 -91 -59 -33 -31 -40 -70 -214 -176 -116 -68 -53 -43 -22 -7 -18 -25 -21 -42 -28 -31 -36 -50 -49 -48 -51 -53 -56 -84 -126 -163 -156 -135 -256 -257
0 0 0 0 -165 -160 -254 -235 -221 -264 -207 -247 -165 -147 -139 -94 -82 -52 -29 -21 -36 -60 -157 -200 -125 -110 -71 -26 -27 -37 -49 -60 -68 -70 -56 -63 -30 -46 -33 -34 -50 -50 -113 -188 -156 -117 -114 -238 -257
0 0 0 0 -111 -142 -152 -220 -174 -93 -184 -268 -170 -162 -229 -180 -115 -70 -57 -28 -44 -47 -182 -258 -191 -164 -88 -45 -81 -94 -90 -97 -82 -66 -61 -62 -53 -40 -60 -54 -42 -54 -159 -171 -102 -33 -115 -55 -193
0 0 0 0 0 -181 -128 -244 -131 -119 -175 -238 -266 -171 -173 -227 -177 -126 -83 -55 -10 -52 -217 -117 -85 -96 -103 -39 -56 -49 -84 -21 -24 -32 -46 -41 -35 -100 -86 -113 -80 -112 -126 -80 -21 -32 -36 -112 -135
0 0 0 0 0 -34 -111 0 0 -143 -95 -199 -193 -248 -188 -194 -227 -170 -93 -53 -2 -11 -130 -164 -118 -116 -101 -35 -40 -25 -20 -30 -25 -44 -29 -38 -15 -14 -92 -91 -48 -24 -32 -35 -16 -50 -36 -53 -132
0 0 0 0 -3 0 0 0 0 -190 -114 -121 -176 -199 -211 -162 -272 -138 -103 -63 -5 -13 -113 -97 -62 -131 -53 -48 -29 -32 -33 -41 -36 -44 -35 -37 -32 0 -89 -88 -38 -17 -32 -59 -58 -24 -17 -97 -143
0 0 0 0 0 0 0 0 -279 -171 -153 -144 -172 -171 -175 -195 -206 -283 -252 -94 -30 -32 -43 -95 -64 -99 -99 -45 -35 -27 -34 -23 -32 -30 -33 -28 -30 -13 -66 -66 -44 -36 -41 -38 -25 -27 -24 -78 -97
0 0 0 0 0 0 0 0 -352 -221 -159 -138 -143 -177 -241 -178 -167 -152 -213 -276 -51 -54 -57 -117 -86 -64 -63 -42 -30 -61 -60 -44 -34 -27 -43 -48 -51 -31 -106 -58 -59 -66 -55 -49 -32 -42 -31 -101 -151
0 0 0 0 0 0 0 0 0 -283 -147 -158 -148 -167 -77 -57 -292 -210 -150 -326 -235 -166 -119 -78 -113 -57 -76 -63 -68 -41 -57 -43 -29 -52 -58 -26 -37 -69 -103 -32 -32 -28 -42 -34 -33 -30 -39 -66 -39
0 0 0 0 0 0 0 0 0 0 -438 -332 -301 -196 -139 -106 -51 -61 -53 -190 -277 -253 -186 -145 -128 -74 -67 -80 -25 -43 -36 -20 -47 -54 -57 -51 -38 -42 -28 -67 -20 -53 -17 -32 -63 -42 -38 -50 -50
0 0 0 0 0 0 0 0 0 0 0 0 -413 -421 -334 -147 -98 -72 -75 -54 -286 -124 -176 -167 -109 -111 -53 -32 -15 -49 -95 -59 -48 -38 -50 -55 -27 -43 -88 -105 -32 -60 -84 -43 -37 -58 -67 -33 -48
0 0 0 0 0 0 0 0 0 0 0 0 0 -480 -467 -298 -139 -125 -94 -82 -70 -125 -143 -176 -133 -128 -70 -42 -22 -25 -85 -67 -45 -26 -40 -36 -47 -15 -16 -35 -34 -22 -64 -30 -40 -20 -25 -67 -69
0 0 0 0 0 0 0 0 -2 -2 0 0 0 -422 -405 -323 -274 -140 -108 -88 -81 -149 -148 -171 -185 -116 -115 -76 -47 -31 -50 -77 -60 -41 -39 -46 -39 -47 -21 -29 -32 -27 -17 -34 -49 -46 -36 -35 -83
0 0 0 0 0 0 0 0 0 0 0 -237 -236 -49 -289 -307 -254 -285 -280 -129 -117 -192 -185 -170 -230 -167 -130 -118 -109 -55 -53 -40 -67 -63 -56 -48 -51 -71 -61 -31 -13 -34 -55 -26 -24 -40 -33 -41 -36
0 0 0 0 0 0 0 0 0 0 -34 -266 -171 -325 -256 -228 -285 -285 -345 -147 -130 -80 -218 -185 -178 -262 -218 -192 -153 -93 -64 -56 -28 -30 -26 -46 -61 -50 -79 -58 -38 -37 -47 -48 -26 -25 -21 -28 -35
0 0 0 0 0 0 0 -95 -20 -506 -349 -62 -265 -127 -237 -656 -408 -253 -372 -300 -134 -84 -33 -201 -189 -268 -245 -86 -72 -153 -107 -101 -58 -76 -43 -46 -87 -47 -30 -50 -37 -40 -31 -36 -27 -27 -20 -39 -32
0 0 0 0 0 0 -23 -242 -251 -423 -317 -307 0 -214 -221 -328 -440 -323 -264 -231 -151 -81 -42 -210 -278 -372 -314 -286 -65 -69 -182 -60 -34 -11 -13 -95 -79 -55 -34 -27 -59 -39 -50 -45 -37 -27 -40 -29 -30
0 0 0 0 0 0 0 -147 -303 -184 0 0 -307 -277 -217 -210 -306 -276 -259 -237 -169 -59 -38 -193 -307 -311 -310 -280 -236 -59 -235 -209 -118 -43 -34 -37 -82 -56 -35 -32 -35 -49 -52 -56 -47 -28 -48 -35 -26
0 0 0 0 0 0 0 -186 -342 -176 0 0 0 -15 -186 -202 -162 -190 -199 -198 -150 -271 -247 -231 -208 -178 -172 -149 -167 -249 -231 -206 -167 -148 -74 -68 -86 -50 -68 -33 -38 -42 -42 -65 -45 -24 -24 -32 -24
Wind_Speed
5 nan 6 nan nan nan nan nan 15 13 16 16 16 nan 13 5 7 nan 11 8 15 12 11 9 12 13 12 13 12 12 12 11 14 12 13 15 14 14 15 15 15 11 5 4 3 4 6 4 3
2 2 nan nan nan nan nan 10 13 13 12 12 9 15 13 7 7 13 12 12 15 13 9 5 11 12 13 12 11 11 12 11 13 12 13 16 17 16 18 16 14 13 9 5 2 4 5 2 1
1 2 nan nan nan nan 2 11 13 16 13 12 11 11 11 11 12 17 14 15 13 11 8 5 10 11 12 11 9 10 10 10 13 14 12 13 14 16 18 16 14 13 11 7 5 4 2 3 3
nan nan nan nan 6 10 3 10 13 10 nan 1 4 7 14 14 14 12 22 17 11 8 5 6 11 10 10 11 9 9 10 9 13 14 12 13 12 15 17 17 12 14 11 8 6 6 7 7 7
nan nan nan nan 4 6 14 22 15 15 nan nan 8 7 9 12 21 23 17 16 13 9 5 6 9 5 7 8 8 7 9 10 12 14 11 12 12 14 16 16 15 15 16 13 11 11 10 9 8
6 nan nan nan nan 12 13 nan 17 16 12 15 5 6 4 18 29 18 14 12 11 12 7 6 8 6 4 6 5 6 7 9 11 13 13 10 12 15 16 14 16 16 16 15 14 13 13 13 13
nan nan nan nan 11 13 20 12 11 11 11 11 7 7 7 13 22 17 10 10 10 10 10 9 9 6 3 2 5 2 6 7 8 10 14 13 13 14 17 16 14 14 18 18 18 16 15 13 12
nan nan nan 12 nan nan 18 15 11 11 12 8 13 18 11 14 22 16 9 6 8 8 8 10 11 11 12 8 1 3 6 6 7 9 17 15 12 13 13 14 15 16 24 22 20 16 12 11 13
10 7 nan 18 nan nan 15 17 nan 10 13 9 10 11 21 27 23 13 8 5 4 4 7 4 10 17 18 12 10 4 5 5 8 8 13 13 9 11 12 13 17 15 13 14 10 2 7 11 10
nan nan nan 19 nan nan nan 22 nan 8 10 6 10 20 28 27 20 15 11 9 7 4 7 11 11 16 17 15 16 10 8 7 3 5 9 5 8 10 11 11 11 11 10 5 3 9 12 11 14
nan nan nan 23 26 18 nan 18 nan nan nan 16 31 29 26 21 17 15 15 16 14 7 8 14 15 16 17 17 15 14 11 9 5 4 8 9 7 7 8 10 9 8 5 9 5 12 6 nan nan
nan nan nan nan 17 17 nan nan nan 25 15 19 27 35 29 20 19 16 15 12 nan nan 9 11 11 10 13 14 12 12 10 8 6 4 5 8 7 7 9 15 10 12 12 10 18 15 18 nan nan
nan nan nan nan 22 18 15 19 17 19 13 20 26 30 33 26 21 15 13 7 nan nan nan 9 6 7 8 9 10 10 11 9 5 5 4 5 7 8 9 12 7 13 16 25 7 9 13 nan nan
nan nan nan nan 14 16 18 15 16 13 12 22 28 30 29 30 24 12 10 11 12 10 nan 8 7 4 3 7 6 7 7 9 7 5 3 5 6 9 11 6 9 12 13 16 11 nan 16 nan nan
nan nan nan nan nan 14 11 12 21 14 20 21 25 25 25 26 23 23 17 15 15 9 6 5 3 2 2 3 2 4 4 6 7 5 2 2 6 nan nan nan 6 8 12 nan 12 19 16 20 16
nan nan nan nan nan nan nan nan nan 18 21 22 17 24 23 27 27 21 18 16 13 8 4 5 4 0 1 4 4 5 7 8 7 8 5 1 4 nan nan 3 4 8 9 11 12 15 14 17 18
nan nan nan nan nan nan nan nan nan 17 18 17 18 21 22 25 24 18 18 16 16 12 9 6 5 8 7 6 6 4 5 9 7 7 6 2 1 nan nan 2 3 4 6 7 12 11 12 12 14
nan nan nan nan nan nan nan nan nan 17 18 18 18 17 20 25 31 23 19 18 14 11 8 7 9 13 9 9 10 10 9 8 8 7 6 5 4 nan 2 4 3 4 3 4 8 9 9 10 10
nan nan nan nan nan nan nan nan nan 18 15 16 18 15 14 24 23 22 19 18 17 14 11 9 10 13 14 13 14 12 9 11 10 8 7 5 6 nan 6 5 8 5 5 1 4 4 6 4 9
nan nan nan nan nan nan nan nan nan nan 24 21 22 20 19 16 16 22 19 20 19 20 17 14 12 7 5 8 11 11 9 8 11 11 10 6 6 nan 9 9 10 10 9 2 1 1 1 1 6
nan nan nan nan nan nan nan nan nan nan 13 19 26 31 28 19 18 22 23 21 18 16 17 17 15 10 7 9 12 17 18 17 18 17 14 10 9 11 nan 11 12 12 11 8 7 5 5 4 1
nan nan nan nan nan nan nan nan nan nan nan nan 31 29 25 21 17 17 23 24 25 20 16 17 16 13 10 10 9 14 15 16 14 16 15 11 11 10 10 10 13 12 15 15 12 9 9 10 6
nan nan nan nan nan nan nan nan nan nan nan nan nan 22 25 23 22 24 26 27 26 23 21 15 14 13 10 11 10 10 13 14 16 18 15 12 12 11 12 14 15 15 16 18 16 13 11 12 11
nan nan nan nan nan nan nan nan nan nan nan nan nan 7 16 17 15 15 19 22 21 20 20 19 17 12 12 12 11 11 11 15 17 17 19 18 15 13 12 13 14 14 16 20 19 16 15 15 13
nan nan nan nan nan nan nan nan nan nan nan 19 nan nan 5 10 9 15 21 23 24 24 23 22 22 18 15 14 12 12 10 12 16 18 20 17 15 16 13 14 16 19 17 19 22 21 19 nan nan
nan nan nan nan nan nan nan nan nan nan nan nan 23 19 nan 11 14 16 20 25 25 27 26 24 23 21 19 18 16 13 12 14 13 13 17 17 15 13 12 15 15 19 19 18 23 22 20 19 16
nan nan nan nan nan nan nan nan nan nan nan nan nan 29 24 nan 11 16 21 23 26 26 28 28 25 21 19 18 16 14 12 13 14 14 16 17 19 17 15 17 17 15 18 20 24 26 21 19 17
nan nan nan nan nan nan nan nan 14 nan nan nan nan 35 29 22 12 14 11 8 16 24 22 24 23 23 20 17 15 13 11 9 12 21 21 22 21 20 19 15 14 12 16 17 23 25 23 19 17
nan nan nan nan nan nan nan nan nan nan nan nan nan nan 38 28 27 25 27 25 18 23 17 13 10 15 13 12 13 13 12 12 15 15 15 18 19 20 19 17 15 12 7 11 18 23 22 19 18
nan nan nan nan nan nan nan nan nan nan nan nan nan nan nan 34 27 33 36 33 35 33 30 27 26 23 21 18 9 11 14 13 13 12 12 14 12 16 15 18 17 14 8 7 10 14 17 18 17
Wind_Direction
114 nan 5 nan nan nan nan nan 32 31 25 21 357 nan 5 317 349 nan 310 317 316 308 322 333 341 341 354 355 352 350 357 357 343 342 359 5 357 6 3 2 349 355 357 349 333 326 342 351 314
104 85 nan nan nan nan nan 41 15 9 359 5 349 319 328 318 307 302 289 327 316 309 313 316 340 342 346 0 358 1 1 349 346 347 3 8 3 3 4 10 360 359 10 8 355 326 63 318 200
342 209 nan nan nan nan 111 63 10 2 13 31 6 323 326 334 309 322 305 315 312 310 299 296 328 342 342 351 356 9 360 346 348 358 3 5 6 9 10 9 13 11 18 12 10 35 33 28 30
nan nan nan nan 203 268 347 30 52 40 nan 63 321 314 299 339 318 313 316 312 304 303 288 309 323 336 342 352 353 12 355 352 352 1 26 22 9 21 26 22 22 28 29 32 50 90 85 67 34
nan nan nan nan 274 318 45 26 34 37 nan nan 308 282 288 287 287 307 313 306 313 292 277 274 307 327 10 341 349 12 358 357 356 358 14 14 22 32 33 31 29 39 50 46 70 91 105 112 117
118 nan nan nan nan 21 28 nan 25 12 5 341 307 275 277 300 302 305 309 309 316 302 285 265 289 289 323 347 349 19 11 8 359 7 19 13 35 39 35 38 39 47 56 63 78 99 114 125 126
nan nan nan nan 28 62 48 14 70 45 26 14 346 329 256 300 304 303 313 311 325 304 290 255 235 254 302 276 317 16 17 21 13 23 34 35 49 43 34 35 32 53 62 63 66 81 99 106 114
nan nan nan 40 nan nan 35 27 38 40 41 21 5 353 322 323 312 310 300 300 313 303 291 284 240 200 196 185 329 43 36 33 23 29 34 35 43 38 34 21 31 50 60 62 70 85 123 135 123
201 173 nan 40 nan nan 37 14 nan 13 355 23 16 2 332 326 308 295 290 243 261 313 323 358 208 187 187 179 166 113 59 47 27 32 43 45 71 61 53 33 43 39 53 71 107 121 130 127 115
nan nan nan 30 nan nan nan 28 nan 27 354 19 357 328 335 325 322 326 332 328 339 6 60 63 127 160 170 166 161 157 144 147 113 65 63 64 64 74 65 63 46 40 32 84 19 66 87 107 107
nan nan nan 38 13 39 nan 57 nan nan nan 2 347 338 338 343 340 346 355 346 340 355 89 95 105 122 137 152 164 156 157 158 150 52 48 57 60 79 80 63 54 41 360 35 39 109 122 nan nan
nan nan nan nan 12 22 nan nan nan 17 40 359 354 344 342 358 4 6 8 349 nan nan 69 85 94 117 133 153 168 155 150 151 156 116 66 56 60 67 64 66 63 29 35 26 71 77 43 nan nan
nan nan nan nan 360 19 26 25 29 18 3 344 354 1 357 357 9 16 19 357 nan nan nan 68 81 109 124 151 177 173 151 144 129 135 119 88 58 68 77 82 56 35 23 50 74 98 96 nan nan
nan nan nan nan 9 8 21 31 38 16 344 347 1 6 7 358 2 356 30 15 22 59 nan 52 64 73 124 168 181 181 177 155 156 141 134 87 80 64 84 75 45 50 37 49 38 nan 100 nan nan
nan nan nan nan nan 19 11 31 51 20 14 7 17 10 17 15 2 16 13 26 10 32 11 9 26 59 176 173 184 192 199 205 173 171 121 57 79 nan nan nan 63 46 39 nan 26 40 74 80 69
nan nan nan nan nan nan nan nan nan 19 358 8 16 15 24 31 23 21 20 12 17 1 340 323 308 176 51 223 253 230 226 227 210 192 190 83 58 nan nan 47 32 41 24 41 41 53 65 58 65
nan nan nan nan nan nan nan nan nan 26 13 12 16 25 34 35 26 27 25 14 5 357 334 325 301 278 294 231 238 236 204 235 228 219 206 221 78 nan nan 357 327 353 17 45 59 54 54 60 63
nan nan nan nan nan nan nan nan nan 33 25 27 28 21 34 27 28 13 13 14 10 349 329 317 292 294 286 247 240 212 198 214 235 239 220 221 221 nan 246 269 288 296 336 7 55 63 53 60 54
nan nan nan nan nan nan nan nan nan 30 51 31 26 18 33 40 22 4 14 6 7 359 340 337 303 294 273 225 234 223 225 230 222 231 255 231 244 nan 232 236 260 255 281 76 43 66 53 12 53
nan nan nan nan nan nan nan nan nan nan 43 37 33 25 25 31 18 0 14 12 7 356 348 349 1 327 270 261 238 243 237 252 253 236 234 229 225 nan 244 235 248 249 260 280 281 317 282 345 7
nan nan nan nan nan nan nan nan nan nan 56 53 57 41 23 8 20 10 17 19 11 7 347 352 2 357 333 288 248 239 237 229 235 237 233 245 257 263 nan 241 242 254 250 248 233 222 251 272 224
nan nan nan nan nan nan nan nan nan nan nan nan 53 35 21 23 15 22 13 18 22 9 353 347 352 353 340 308 297 259 250 251 244 253 254 246 252 251 248 246 247 244 249 252 244 236 230 247 244
nan nan nan nan nan nan nan nan nan nan nan nan nan 33 30 16 11 9 15 15 20 13 4 346 337 331 328 327 306 282 262 254 252 244 254 252 244 254 255 256 256 254 244 251 255 252 252 237 246
nan nan nan nan nan nan nan nan nan nan nan nan nan 41 29 26 13 1 8 2 6 8 8 356 339 334 317 316 305 307 279 264 255 248 247 238 237 237 246 253 257 265 258 254 251 246 244 246 248
nan nan nan nan nan nan nan nan nan nan nan 226 nan nan 100 76 58 15 4 357 350 356 360 355 344 343 336 327 313 291 286 271 266 264 247 248 238 237 250 258 265 265 264 264 249 241 245 nan nan
nan nan nan nan nan nan nan nan nan nan nan nan 228 198 nan 104 25 21 15 354 349 354 353 355 346 339 342 339 333 311 291 268 276 235 237 241 241 241 251 251 274 281 264 252 248 233 238 245 251
nan nan nan nan nan nan nan nan nan nan nan nan nan 214 208 nan 44 14 6 355 343 345 352 353 347 342 335 342 333 322 307 282 268 265 254 245 244 235 237 250 277 285 272 252 248 248 248 248 250
nan nan nan nan nan nan nan nan 192 nan nan nan nan 209 208 215 250 297 303 333 337 329 337 338 342 345 338 332 325 313 301 290 259 254 257 256 254 252 252 260 269 274 275 261 245 247 248 254 252
nan nan nan nan nan nan nan nan nan nan nan nan nan nan 226 231 230 238 270 273 268 270 273 277 303 317 326 317 316 299 292 278 265 262 262 265 272 274 268 257 277 286 288 260 238 239 247 253 257
nan nan nan nan nan nan nan nan nan nan nan nan nan nan nan 240 236 246 248 255 257 251 253 257 246 234 225 205 197 290 276 265 262 268 271 270 277 269 277 271 276 283 296 243 232 241 233 247 258